Theta_e
332 332 329 323 325 323 326 327 326 327 327 324 324 328 332 333 337 334 333 334 334 337 338 337 335 334 331 330 330 330 330 332 331 332 333 334 333 331 331 329 328 330 330 329 328 328 329 329 329
332 332 326 320 325 326 325 327 329 328 326 324 324 329 333 339 333 332 335 335 333 337 338 337 334 330 329 330 329 329 330 331 330 331 332 333 333 331 330 329 329 328 329 329 328 328 329 329 327
332 330 321 323 321 326 328 327 328 328 327 327 328 327 332 335 332 332 334 336 333 336 337 336 332 329 331 329 329 329 330 330 329 330 329 334 333 330 330 328 328 328 328 328 328 328 328 326 326
332 326 322 323 326 325 324 327 326 327 327 327 327 333 331 333 334 334 335 335 334 336 337 335 332 330 329 327 329 329 329 329 328 329 330 329 329 329 326 328 327 327 328 328 327 325 324 324 324
329 322 329 330 325 327 325 325 325 327 327 327 325 333 334 334 333 334 336 336 335 334 336 335 332 331 328 327 326 327 329 329 329 328 329 329 327 329 327 326 326 326 328 328 327 321 323 324 324
327 325 333 336 329 326 326 324 325 326 326 326 326 333 333 334 334 333 336 336 334 334 335 335 332 331 328 327 326 328 329 328 328 328 328 329 327 328 328 326 325 326 327 327 326 319 321 323 323
330 328 334 334 335 325 324 325 324 325 326 328 324 334 331 332 333 333 334 334 335 336 335 334 333 332 329 327 328 328 329 329 327 326 327 328 327 327 327 327 326 324 326 326 322 318 319 322 323
325 327 333 331 333 333 322 324 321 325 329 326 325 332 333 331 334 333 331 333 337 337 336 334 334 332 331 328 329 328 329 328 327 326 324 326 327 326 327 327 326 326 322 325 319 317 318 319 322
325 329 332 332 332 331 322 323 321 320 325 326 329 327 329 333 334 334 330 332 335 336 335 334 334 332 332 328 329 328 330 329 328 326 325 324 326 326 325 325 325 326 325 321 318 317 317 318 319
326 327 329 327 328 329 324 322 322 323 322 323 331 332 332 332 333 332 330 328 335 336 335 334 334 333 333 330 328 327 330 330 328 327 326 323 323 325 326 325 324 325 326 325 320 318 316 316 317
329 328 327 327 328 327 327 325 324 323 327 322 324 332 331 330 330 330 329 329 332 334 334 333 333 334 333 332 329 328 328 331 329 327 326 324 322 321 325 324 324 323 324 326 324 321 318 316 316
329 325 325 323 322 326 327 325 326 326 326 323 324 329 331 330 329 329 329 329 328 329 332 333 333 334 334 332 331 330 329 331 330 328 326 325 322 323 321 324 324 324 323 324 324 322 319 317 320
323 322 322 323 322 321 325 326 326 324 322 321 322 328 329 330 330 330 330 330 330 329 328 330 334 333 334 333 332 331 330 329 329 328 326 325 322 324 324 323 322 322 323 322 321 320 319 318 321
321 323 325 323 323 321 325 325 324 322 321 322 321 321 327 329 330 330 330 330 329 330 329 328 329 333 334 333 332 331 330 330 329 327 326 325 323 324 325 325 324 324 323 320 320 319 319 318 319
323 324 323 323 323 323 323 323 324 320 320 320 319 318 317 319 328 329 331 331 331 330 330 328 327 327 332 333 332 332 331 331 329 329 327 326 324 323 325 325 324 324 323 321 320 320 319 319 319
324 323 325 321 321 321 322 321 320 318 319 319 317 315 315 315 317 321 326 329 330 331 330 330 328 326 327 330 333 332 332 331 330 329 329 326 325 324 325 325 325 324 322 320 319 319 322 321 321
324 323 324 323 321 319 321 324 320 318 317 317 315 314 314 313 315 318 319 322 326 329 331 330 329 327 326 326 330 332 332 331 330 329 330 329 327 326 325 326 326 325 322 323 321 321 321 322 321
324 323 322 322 320 320 320 321 320 319 319 317 316 314 314 314 315 320 321 322 321 323 325 329 330 329 328 326 327 330 331 331 331 330 329 330 328 327 327 327 326 325 324 324 322 322 320 320 320
321 323 323 319 318 320 319 318 317 319 317 316 314 313 313 314 315 318 319 320 322 323 322 326 329 329 327 326 326 328 329 330 330 330 330 329 329 327 326 327 326 325 324 324 324 322 320 320 319
323 323 322 319 318 318 317 316 314 314 314 314 314 313 314 314 314 315 318 320 320 321 322 324 328 328 328 327 327 326 327 328 328 329 329 329 329 328 327 326 326 325 324 324 323 323 320 319 319
322 322 322 322 317 316 314 317 314 313 312 312 312 312 313 314 314 313 314 317 318 319 320 321 324 328 328 328 327 326 326 326 327 327 327 328 328 327 327 326 326 324 324 322 323 323 321 319 318
322 319 321 321 318 318 314 319 314 313 312 311 309 308 309 311 312 313 313 315 317 318 317 318 320 326 328 328 327 327 327 326 326 326 326 326 326 327 326 326 326 325 323 322 321 321 320 319 317
321 318 320 319 317 317 316 316 313 311 312 311 309 309 307 308 310 311 311 314 315 316 316 318 318 320 326 328 327 327 327 327 327 326 326 326 326 326 326 325 325 324 324 322 321 320 319 318 318
316 318 319 317 317 321 316 315 313 311 311 311 310 313 313 314 310 308 311 311 310 311 311 310 311 318 321 328 328 327 327 327 327 326 326 326 325 325 325 325 325 325 323 322 322 322 321 319 318
318 320 315 315 322 317 313 316 314 312 311 310 312 311 312 313 304 306 307 308 310 311 312 312 312 312 311 319 326 328 328 327 327 327 326 326 325 324 324 324 325 325 324 323 322 322 322 321 320
317 318 312 313 317 316 313 317 316 312 311 311 309 309 309 304 305 306 306 308 310 312 313 312 311 311 313 312 311 321 328 328 328 327 327 327 326 326 325 325 324 324 325 324 323 322 322 323 322
317 319 312 313 307 315 314 313 312 313 312 312 312 310 306 304 306 309 309 310 310 312 312 312 313 313 313 313 311 309 315 327 328 328 328 327 327 327 326 326 325 324 324 324 324 323 323 322 323
317 315 319 312 314 317 313 313 315 313 313 312 311 312 309 307 309 308 308 309 309 307 306 307 310 311 310 310 310 309 308 308 314 327 328 328 328 328 327 327 326 325 325 325 325 324 324 323 322
317 318 317 315 311 314 312 310 306 311 311 309 309 310 307 308 308 307 306 305 303 303 303 303 304 305 306 307 307 306 306 307 306 306 314 327 328 328 328 328 327 326 325 325 325 325 325 324 323
314 316 316 318 314 311 314 313 310 309 310 308 308 308 309 308 306 303 302 301 301 300 300 300 300 300 300 300 302 304 305 304 304 304 305 309 322 328 328 328 327 326 325 325 325 325 325 325 324
Wind_Speed
32 27 14 4 4 5 1 2 2 2 2 1 2 9 7 3 1 2 7 13 25 28 25 20 16 13 14 17 18 17 17 18 17 16 15 18 18 18 19 18 18 17 17 17 18 18 18 17 17
34 19 5 2 5 3 3 1 5 2 2 3 8 4 4 2 2 7 16 22 26 27 24 21 17 16 16 16 17 18 17 17 17 15 15 14 18 17 17 17 18 16 16 16 16 17 17 16 18
25 8 3 4 3 4 4 2 5 1 2 2 4 5 3 2 2 13 9 27 26 27 24 21 18 19 19 18 17 18 17 17 16 15 14 14 16 16 18 15 17 15 15 15 15 15 16 16 16
13 7 4 5 4 2 6 6 5 4 2 3 3 6 3 3 12 9 27 25 25 26 23 21 20 19 18 18 19 17 17 17 18 18 16 14 13 12 14 15 14 14 13 14 14 16 17 17 16
7 3 4 3 1 0 2 5 7 5 4 1 2 3 2 2 7 20 28 27 24 25 23 22 20 19 18 18 19 18 17 15 15 16 16 15 15 15 12 13 14 13 12 12 12 15 17 15 13
5 3 4 2 3 2 2 6 6 5 5 4 5 4 2 4 18 27 28 26 21 24 24 23 21 19 19 19 17 18 17 16 16 16 17 15 15 17 14 12 12 14 13 11 11 14 15 14 13
3 3 2 2 3 2 2 2 6 5 4 1 6 4 2 5 19 21 25 23 22 23 24 25 23 21 20 20 19 18 18 18 16 15 18 17 15 16 15 14 12 12 14 12 13 13 14 15 13
4 3 2 1 2 4 2 2 5 5 2 1 4 5 4 12 22 19 20 20 23 25 23 25 25 23 22 22 21 21 20 18 15 15 16 20 17 15 16 15 11 10 11 13 12 12 13 13 14
3 4 2 3 2 5 2 1 2 1 5 2 3 3 3 25 24 21 21 22 24 24 24 24 26 25 23 22 22 22 22 21 19 16 15 20 22 18 17 17 16 12 10 10 12 12 12 13 13
4 4 9 4 1 3 1 2 2 2 2 1 4 6 15 26 26 25 22 22 28 28 26 24 28 27 25 24 24 23 24 24 24 22 18 19 22 24 22 20 18 17 14 13 13 12 12 12 13
4 5 4 2 3 3 3 2 4 5 1 4 5 7 8 12 19 19 24 30 31 29 26 26 29 28 28 28 27 26 25 26 26 24 22 18 21 21 25 24 21 20 19 19 16 15 15 14 13
3 4 2 1 4 3 2 2 4 2 5 5 3 14 12 11 16 21 23 30 30 30 30 29 28 30 31 30 29 29 27 28 29 28 25 22 23 24 25 27 25 24 23 24 22 19 18 17 16
3 3 2 2 2 4 3 5 5 6 9 6 3 10 11 12 19 25 32 31 31 33 34 33 32 32 34 33 32 31 31 30 31 30 29 26 26 28 26 27 28 27 25 25 25 23 21 21 19
1 2 0 2 3 3 3 4 3 6 5 6 6 6 9 12 22 24 22 31 33 37 37 36 36 36 35 35 35 34 34 33 33 32 32 30 28 31 30 30 29 29 27 26 26 25 24 23 21
2 3 4 2 2 3 1 8 7 7 2 8 10 10 8 13 23 24 33 35 37 39 38 38 38 39 39 41 40 38 38 35 34 35 36 33 31 34 30 33 32 30 29 28 27 27 25 24 24
3 4 2 4 4 6 7 9 6 10 4 10 10 9 9 13 19 28 33 37 37 37 37 38 39 41 43 41 44 42 41 39 38 36 37 36 35 34 34 34 34 30 29 28 29 29 28 27 26
2 3 7 7 5 4 8 3 8 11 6 9 9 9 8 8 14 23 29 32 38 39 39 40 39 41 42 44 44 44 43 42 39 38 39 39 38 37 37 36 36 32 31 31 31 30 30 30 29
6 4 4 6 4 6 7 8 9 8 6 9 9 9 9 9 12 24 19 20 28 34 35 40 41 42 42 42 42 40 42 43 43 42 42 41 39 39 38 39 39 35 34 35 34 33 33 33 31
5 4 7 3 6 3 8 9 11 12 8 9 8 10 11 13 18 24 24 23 22 20 28 35 40 42 40 38 37 35 40 43 44 45 44 43 42 42 41 42 41 38 38 39 38 36 36 35 31
9 3 4 7 7 1 7 12 11 9 7 9 11 12 17 16 13 19 26 24 20 24 26 33 40 41 43 41 41 35 35 34 39 40 43 46 46 45 44 44 43 42 41 39 40 40 32 34 35
7 12 4 6 6 3 6 12 7 7 5 7 10 13 14 16 16 14 16 28 33 27 24 27 36 40 42 44 35 29 24 27 27 35 41 48 48 46 46 46 44 41 43 39 41 42 38 28 30
15 5 7 6 1 4 4 7 5 5 10 8 12 8 13 15 12 12 12 19 27 30 27 24 28 36 40 42 33 33 33 29 37 36 38 38 42 47 46 48 48 44 42 40 40 42 41 33 27
6 6 10 7 2 4 2 4 6 4 5 10 9 9 11 12 9 9 8 12 6 1 2 3 14 26 35 35 38 39 33 33 33 29 31 35 39 43 45 44 46 46 44 42 40 36 40 40 37
5 4 2 4 2 8 8 6 4 5 6 5 7 6 6 4 2 1 7 12 9 9 11 11 6 5 18 29 36 36 35 35 28 29 30 34 36 38 42 45 45 43 42 43 44 42 38 42 39
8 7 1 1 4 8 3 8 14 4 12 7 8 7 6 2 7 7 6 8 12 14 13 12 13 13 9 11 26 35 37 34 33 35 31 31 30 32 39 42 42 42 43 42 41 40 39 40 40
8 11 5 8 4 4 4 8 7 11 10 11 9 7 4 5 6 6 6 7 10 15 17 15 14 15 15 14 11 21 35 36 35 36 35 31 32 34 38 40 40 43 43 41 39 38 39 39 39
6 11 8 3 2 1 5 7 8 10 11 9 6 6 7 7 6 7 7 10 13 17 18 18 18 17 17 18 16 13 17 31 34 36 34 35 35 33 34 38 40 41 43 41 39 38 39 40 40
8 8 6 2 5 5 5 6 9 5 5 9 5 8 7 4 5 7 9 14 15 16 16 15 16 18 19 19 17 18 18 18 24 32 35 34 35 35 37 37 39 39 41 41 40 39 39 38 40
5 6 5 5 5 5 2 6 8 13 11 9 7 7 9 6 6 6 8 12 13 15 17 18 18 19 21 22 22 19 20 23 22 23 30 34 35 36 36 39 39 39 39 38 39 39 38 37 39
13 16 15 7 7 3 2 7 3 4 4 6 7 7 7 7 7 5 9 14 18 20 22 21 20 21 22 24 22 23 23 22 22 24 25 26 31 35 38 37 38 38 37 38 39 39 38 38 38
Wind_Direction
335 344 344 40 56 66 45 56 100 106 45 252 91 98 117 57 97 197 159 156 161 156 158 159 156 156 143 136 134 131 132 130 128 119 119 119 112 109 112 110 109 107 105 103 105 108 105 96 87
337 347 15 75 85 77 311 33 101 140 181 143 90 109 66 109 137 118 139 172 163 160 162 160 157 150 145 141 139 138 133 135 133 128 123 124 118 113 118 116 111 108 109 109 110 113 110 98 93
341 358 66 75 110 147 153 196 153 178 54 58 99 53 110 153 119 149 180 163 164 165 166 161 157 153 149 146 144 141 140 139 141 135 134 120 121 114 126 122 119 118 119 119 117 118 118 110 101
343 8 30 81 93 5 151 181 166 125 26 57 106 69 37 322 162 167 157 162 167 168 168 164 160 158 156 153 150 152 151 150 151 149 143 152 145 131 128 126 123 122 124 124 124 129 128 123 115
9 54 44 51 60 145 143 180 156 140 155 114 108 161 63 345 195 163 162 163 165 172 172 169 167 163 163 160 157 157 157 159 155 157 155 149 157 147 144 140 135 133 133 133 134 138 137 133 121
13 78 56 42 322 286 264 168 151 151 172 156 88 101 203 171 156 158 168 168 171 170 177 176 173 171 167 167 161 158 161 168 169 165 168 160 158 156 159 160 156 148 147 149 149 147 146 142 132
93 65 195 147 274 250 224 146 139 153 141 147 143 104 184 185 165 159 167 174 176 176 177 180 180 178 177 176 172 172 176 184 182 182 174 173 166 163 167 169 165 167 160 162 159 156 153 152 146
104 89 316 265 185 284 270 75 133 126 183 186 129 171 207 202 171 163 168 173 177 183 186 188 187 186 184 184 184 182 187 191 191 187 186 179 175 178 177 170 178 179 183 175 169 165 164 162 160
94 78 230 257 48 289 329 62 1 224 113 94 31 139 200 162 169 168 167 172 182 190 195 197 194 193 193 192 192 191 193 196 195 195 194 185 182 184 187 191 184 190 194 194 180 178 175 173 174
107 149 209 190 166 333 229 139 197 94 100 104 44 33 132 158 172 175 179 181 188 192 197 205 202 199 198 198 198 199 199 200 201 199 198 200 193 189 190 193 197 191 192 207 200 188 186 186 186
171 208 216 129 43 26 358 14 318 131 229 202 173 172 158 166 181 189 191 192 194 198 201 204 206 207 205 205 204 205 205 207 207 208 207 209 204 200 197 195 197 199 202 202 205 203 198 195 196
176 205 228 298 30 319 266 300 329 261 230 75 59 174 170 179 194 200 206 202 203 205 208 210 211 212 213 213 213 213 210 208 211 213 214 214 211 203 205 203 201 204 208 207 209 209 206 203 202
194 246 239 259 358 298 254 236 237 252 268 294 236 159 188 197 207 209 212 214 214 214 213 214 214 216 217 215 219 221 220 218 218 219 219 221 223 213 208 211 210 212 214 214 211 210 212 211 211
211 240 224 59 331 259 241 242 181 245 232 276 311 207 216 210 214 217 216 220 218 222 221 216 217 219 220 219 221 224 224 228 227 226 226 228 232 223 221 217 217 221 221 220 220 218 215 217 220
185 281 349 218 173 284 73 296 209 248 340 279 276 278 253 229 235 224 227 223 224 225 229 222 220 220 220 222 226 227 229 230 232 234 234 233 232 228 229 223 223 226 230 229 228 226 225 223 227
119 68 313 283 180 243 153 252 260 272 237 266 269 269 264 268 236 244 240 235 234 231 228 231 226 222 221 223 226 228 232 234 236 238 238 237 235 231 230 229 230 235 232 230 228 227 229 231 230
310 193 225 309 231 235 187 268 240 252 189 239 262 272 274 281 285 269 256 249 243 238 233 233 230 225 225 224 226 228 230 232 235 239 240 241 238 236 232 235 235 240 235 232 229 229 231 232 235
203 188 223 215 266 192 242 262 268 270 261 233 245 273 277 270 260 276 276 266 253 240 237 236 233 230 229 226 223 226 228 234 236 239 241 241 240 239 237 238 241 242 239 236 233 233 231 234 239
156 188 230 266 240 260 257 257 259 257 257 262 269 266 270 265 266 274 273 271 265 255 244 236 229 231 223 216 217 218 225 228 233 237 237 238 239 239 237 238 242 242 241 239 238 235 236 235 237
232 211 255 286 283 261 282 279 252 249 233 235 248 258 259 264 267 268 271 272 274 271 251 236 234 231 227 220 223 219 224 230 233 236 237 239 240 239 238 238 238 241 239 238 239 236 232 236 234
233 225 192 237 319 290 314 283 222 244 250 256 255 250 261 255 259 258 250 260 268 268 262 247 239 233 232 230 221 221 224 229 231 234 239 240 239 241 240 240 239 238 237 233 235 236 232 233 232
229 196 219 246 249 252 29 289 246 242 270 265 257 265 259 259 250 248 235 246 257 267 271 264 252 239 235 234 217 214 216 216 227 230 236 235 239 239 240 239 241 238 237 233 233 234 232 226 231
219 168 206 222 191 348 185 278 273 277 262 260 260 264 266 252 240 243 249 263 270 184 84 314 248 244 241 234 222 222 220 226 233 230 232 237 239 242 239 238 238 237 234 234 232 230 227 226 228
158 126 116 59 109 254 224 190 235 230 222 249 272 225 288 20 19 157 110 103 82 68 57 47 24 289 249 241 239 227 226 226 227 231 229 233 236 238 239 237 238 236 235 232 231 230 229 227 229
209 145 137 294 212 238 246 196 251 262 261 233 263 246 308 96 100 105 88 59 48 34 31 27 18 11 347 271 248 240 236 237 232 234 233 233 231 231 236 239 232 235 235 236 234 229 227 227 227
200 186 163 200 204 235 145 225 252 236 259 259 252 250 191 171 137 116 92 67 41 29 24 13 2 350 349 345 301 263 252 243 242 241 240 238 237 237 241 242 238 236 239 236 235 233 230 230 232
177 200 178 119 350 114 222 284 292 255 257 263 278 155 179 185 138 89 74 45 40 32 24 11 359 348 342 331 326 312 272 255 246 247 245 242 242 242 243 245 243 238 240 238 233 232 234 232 233
188 159 178 209 180 235 258 264 239 309 262 254 252 198 194 174 114 81 56 52 44 32 18 9 1 353 347 346 334 319 314 299 272 260 252 247 246 245 244 244 242 238 238 239 235 234 234 234 234
165 201 209 167 166 196 242 255 216 235 253 242 251 199 156 137 81 75 68 48 36 25 17 9 0 347 339 338 337 331 320 314 303 286 268 258 253 249 246 245 243 238 234 234 234 235 236 234 234
212 212 200 203 218 224 180 257 280 183 70 76 97 134 108 109 103 75 56 40 28 18 14 9 1 354 342 336 331 327 323 322 316 306 295 282 267 255 249 247 244 238 235 234 234 235 237 237 238